Regional Weather Roundup
Issued by NWS Glasgow, MT

Home | Current Version | Previous Version | Text Only | Print | Product List | Glossary On
Versions: 1 2 3 4 5 6 7 8 9 10 11 12 13 14 15 16 17 18 19 20 21 22 23 24 25 26 27
000
ASUS45 KGGW 300915
RWRGGW
HOURLY REGIONAL WEATHER ROUNDUP FOR NORTHEAST MONTANA
NATIONAL WEATHER SERVICE GLASGOW MONTANA
300 AM MDT SAT JUL 30 2016

NOTE: "FAIR" INDICATES FEW OR NO CLOUDS BELOW 12,000 FEET WITH NO
SIGNIFICANT WEATHER AND/OR OBSTRUCTIONS TO VISISBILITY.

NORTHEAST MONTANA


CITY           SKY/WX    TMP DP  RH WIND       PRES   REMARKS
GLASGOW        CLEAR     60  53  77 E8        29.90F
PLENTYWOOD       N/A     59  54  83 E2          N/A
WOLF POINT     CLEAR     59  53  80 CALM      29.91F
JORDAN           N/A     60  56  86 NE3       29.92F
WINNETT          N/A     57  51  80 CALM        N/A
SIDNEY         CLEAR     55  47  74 NW3       29.92F
GLENDIVE       CLEAR     59  51  75 NW7       29.93F
MALTA            N/A     63  57  81 NE3G12      N/A
OPHEIM           N/A     59  52  77 S2        29.72S

FORT PECK REPORTS


CITY           SKY/WX    TMP DP  RH WIND       PRES   REMARKS
FORT PECK        N/A     67  56  67 E9          N/A
THE PINES        N/A     68  55  63 S3          N/A

SOUTHEAST MONTANA


CITY           SKY/WX    TMP DP  RH WIND       PRES   REMARKS
BILLINGS       CLEAR     68  50  52 N9        29.93F
MILES CITY     CLEAR     63  53  70 N6        29.92F
BAKER          CLEAR     58  55  90 CALM      29.96F
LIVINGSTON     CLOUDY    61  47  59 VRB3      29.99S

CENTRAL MONTANA


CITY           SKY/WX    TMP DP  RH WIND       PRES   REMARKS
HAVRE          CLEAR     64  54  69 NE3       29.84F
LEWISTOWN      NOT AVBL
GREAT FALLS    CLEAR     64  48  56 SE8       29.88F
CUT BANK         N/A     61  50  67 SE5       29.88F
HELENA         CLEAR     67  46  47 CALM      29.92F
BUTTE          CLEAR     57  41  55 CALM      30.03F
BOZEMAN        CLEAR     59  49  69 NW6       29.95F

WESTERN MONTANA


CITY           SKY/WX    TMP DP  RH WIND       PRES   REMARKS
MISSOULA       CLEAR     62  48  60 W3        29.88S
KALISPELL      NOT AVBL

NORTH DAKOTA


CITY           SKY/WX    TMP DP  RH WIND       PRES   REMARKS
WILLISTON      CLEAR     58  54  86 NW3       29.92F
DICKINSON      CLEAR     56  55  97 N5        29.91F
MINOT          CLEAR     62  58  86 CALM      29.91F
BISMARCK       TSTM      65  61  87 MISG      29.96R FOG

SOUTHERN SASKATCHEWAN


CITY           SKY/WX    TMP DP  RH WIND       PRES   REMARKS
REGINA         CLEAR     54  54 100 SE7       29.88F
ESTEVAN        CLEAR     57  55  94 S3        29.90F
SWIFT CURRENT  CLEAR     57  55  94 S9        29.88F





USA.gov is the U.S. government's official web portal to all federal, state and local government web resources and services.